Location: Four Corners
(38.2757°N, 122.4608°W)
Time: 11:56:14
(UTC+00:00)

Lacrosse 5 rocket - Pass Details

Date: 08 December 2019
Orbit: 465 x 632 km, 57.0° (Epoch: 24 January)

Event Time Altitude Azimuth Distance (km) Brightness Sun altitude
Rises 01:08:54 0° 220° (SW) 2,844 6.4 -4.2°
Reaches altitude 10° 01:11:13 10° 220° (SW) 1,921 5.3 -4.7°
Maximum altitude 01:15:35 87° 133° (SE) 579 1.4 -5.4°
Drops below altitude 10° 01:19:45 10° 43° (NE) 1,830 3.4 -6.2°
Enters shadow 01:20:35 - 43° (NE) 2,158 3.8 -6.3°
